Newport, Rhode Island, United States (02840)
Lat: 41.49N, Lon: 71.31W
Wx Zone: RIZ007
Local Info
Past Weather Observations for Today

NOTE: This archive is for the closest National Weather Service station to Newport. Information may differ from the station used for current weather conditions.

Click here for Long-term Archive

Time Weather Temperature Dewpoint Humidity Pressure Winds Precip Visibility
13:53
Overcast
36°F / 2°C 34°F / 1°C 93% 30.27 in
(1025 mb)
N 11.5 mph
(N 19 kph)
- 10SM
12:53
Overcast
36°F / 2°C 34°F / 1°C 93% 30.24 in
(1024 mb)
N 10.4 mph
(N 17 kph)
0.00 in
(0.00 mm)
9SM
12:33
Overcast
36°F / 2°C 34°F / 1°C 93% 30.24 in
(1024 mb)
N 11.5 mph
(N 19 kph)
0.00 in
(0.00 mm)
8SM
11:53
Overcast
Unknown Precip
36°F / 2°C 34°F / 1°C 93% 30.27 in
(1025 mb)
NNE 11.5 mph
(NNE 19 kph)
0.01 in
(0.25 mm)
5SM
11:25
Overcast
Unknown Precip
36°F / 2°C 34°F / 1°C 93% 30.27 in
(1025 mb)
N 11.5 mph
(N 19 kph)
0.01 in
(0.25 mm)
5SM
11:01
Overcast
Unknown Precip
36°F / 2°C 34°F / 1°C 93% 30.27 in
(1025 mb)
N 9.2 mph
(N 15 kph)
0.00 in
(0.00 mm)
6SM
10:53
Overcast
Unknown Precip
36°F / 2°C 34°F / 1°C 93% 30.27 in
(1025 mb)
N 8.1 mph
(N 13 kph)
0.00 in
(0.00 mm)
7SM
09:53
Overcast
37°F / 3°C 34°F / 1°C 87% 30.3 in
(1026 mb)
NNE 9.2 mph
(NNE 15 kph)
- 10SM
08:53
Overcast
36°F / 2°C 34°F / 1°C 93% 30.27 in
(1025 mb)
NNE 8.1 mph
(NNE 13 kph)
- 10SM
07:53
Overcast
36°F / 2°C 34°F / 1°C 93% 30.27 in
(1025 mb)
NNE 6.9 mph
(NNE 11 kph)
- 10SM
07:31
Overcast
36°F / 2°C 34°F / 1°C 93% 30.27 in
(1025 mb)
N 4.6 mph
(N 7 kph)
- 10SM
06:53
Overcast
36°F / 2°C 34°F / 1°C 93% 30.27 in
(1025 mb)
NE 10.4 mph
(NE 17 kph)
- 10SM
06:13
Overcast
36°F / 2°C 34°F / 1°C 93% 30.24 in
(1024 mb)
NE 9.2 mph
(NE 15 kph)
- 10SM
05:53
Overcast
36°F / 2°C 34°F / 1°C 93% 30.27 in
(1025 mb)
NE 9.2 mph
(NE 15 kph)
- 10SM
05:27
Overcast
36°F / 2°C 34°F / 1°C 93% 30.24 in
(1024 mb)
NE 8.1 mph
(NE 13 kph)
- 10SM
05:16
Overcast
36°F / 2°C 34°F / 1°C 93% 30.24 in
(1024 mb)
NE 10.4 mph
(NE 17 kph)
- 10SM
04:53
Overcast
36°F / 2°C 34°F / 1°C 93% 30.24 in
(1024 mb)
NE 10.4 mph
(NE 17 kph)
- 10SM
03:53
Overcast
34°F / 1°C 34°F / 1°C 100% 30.24 in
(1024 mb)
NNE 8.1 mph
(NNE 13 kph)
- 10SM
02:53
Overcast
34°F / 1°C 34°F / 1°C 100% 30.24 in
(1024 mb)
N 8.1 mph
(N 13 kph)
- 10SM
02:43
Overcast
34°F / 1°C 34°F / 1°C 100% 30.24 in
(1024 mb)
N 8.1 mph
(N 13 kph)
- 10SM
02:11
Overcast
34°F / 1°C 34°F / 1°C 100% 30.24 in
(1024 mb)
N 6.9 mph
(N 11 kph)
- 8SM
01:53
Overcast
34°F / 1°C 34°F / 1°C 100% 30.24 in
(1024 mb)
N 8.1 mph
(N 13 kph)
- 9SM
00:53
Overcast
34°F / 1°C 34°F / 1°C 100% 30.24 in
(1024 mb)
NNE 9.2 mph
(NNE 15 kph)
- 10SM
00:11
Overcast
Fog And Mist
34°F / 1°C 32°F / 0°C 93% 30.24 in
(1024 mb)
N 8.1 mph
(N 13 kph)
- 6SM
Time Weather Temperature Dewpoint Humidity Pressure Winds Precip Visibility


Weather for websites

WeatherForYou.com, LLC is not responsible for any damages or problems caused by this service. Current weather conditions are obtained from the closest station including government and personal stations which may have varying degrees of accuracy. Weather forecasts are derived from the NOAA NDFD. Like all things, this site belongs to Jesus Christ... He just trusts me to maintain it. If you have any questions or comments email webmaster@weatherforyou.com

Copyright © 2014, WeatherForYou.com LLC. All rights reserved.